DW6467 Weather Reports


time (UTC)temp
C
wind
direction
speed
KPH
gust
KPH
rain 1hr
cm
rain 24hr
cm
rain mn
cm
humidity
%
barometer
mb
20260506004821 24 339 12.9 14.5 0.00 0.00 0.00 28 1009.2
20260506004319 25 294 8.0 16.1 0.00 0.00 0.00 28 1009.3
20260506003815 26 318 11.3 24.1 0.00 0.00 0.00 27 1009.1
20260506003312 26 288 9.7 17.7 0.00 0.00 0.00 27 1009.2
20260506002808 26 11 11.3 16.1 0.00 0.00 0.00 27 1009.2
20260506002306 26 307 8.0 20.9 0.00 0.00 0.00 27 1009.0
20260506001800 27 291 12.9 25.7 0.00 0.00 0.00 26 1009.0
20260506001258 26 301 14.5 16.1 0.00 0.00 0.00 27 1009.1
20260506000754 27 296 14.5 17.7 0.00 0.00 0.00 26 1009.0
20260506000254 27 290 3.2 12.9 0.00 0.00 0.00 27 1009.2
20260505235749 27 292 14.5 16.1 0.00 0.00 0.00 25 1009.3
20260505235246 27 308 9.7 11.3 0.00 0.00 0.00 26 1009.3
20260505234743 27 296 9.7 11.3 0.00 0.00 0.00 24 1009.4
20260505234241 27 294 12.9 14.5 0.00 0.00 0.00 25 1009.3
20260505233737 27 318 6.4 9.7 0.00 0.00 0.00 24 1009.2
20260505233235 27 339 3.2 6.4 0.00 0.00 0.00 25 1009.5
20260505232732 26 338 3.2 4.8 0.00 0.00 0.00 28 1009.4
20260505232230 26 354 4.8 9.7 0.00 0.00 0.00 26 1009.4
20260505231726 26 297 8.0 14.5 0.00 0.00 0.00 28 1009.5
20260505231225 27 307 9.7 14.5 0.00 0.00 0.00 26 1009.3
20260505230723 26 326 6.4 12.9 0.00 0.00 0.00 25 1009.7
20260505230219 26 296 6.4 11.3 0.00 0.00 0.00 24 1009.4
20260505225715 27 272 16.1 22.5 0.00 0.00 0.00 23 1009.4
20260505225213 27 340 8.0 11.3 0.00 0.00 0.00 23 1009.7
20260505224708 27 334 6.4 9.7 0.00 0.00 0.00 22 1009.5
20260505224206 26 319 6.4 11.3 0.00 0.00 0.00 25 1009.7
20260505223703 26 21 11.3 12.9 0.00 0.00 0.00 23 1009.7
20260505223159 27 4 6.4 12.9 0.00 0.00 0.00 22 1009.7
20260505222655 27 297 9.7 22.5 0.00 0.00 0.00 25 1009.8
20260505222151 27 308 6.4 12.9 0.00 0.00 0.00 27 1009.8
20260505221649 27 290 6.4 12.9 0.00 0.00 0.00 25 1009.9
20260505221145 27 320 8.0 12.9 0.00 0.00 0.00 25 1010.2
20260505220643 27 311 8.0 14.5 0.00 0.00 0.00 24 1010.1
20260505220140 27 316 9.7 12.9 0.00 0.00 0.00 26 1010.1
20260505215638 27 311 9.7 14.5 0.00 0.00 0.00 26 1010.3
20260505215136 27 307 20.9 27.4 0.00 0.00 0.00 26 1010.1
20260505214633 27 316 9.7 12.9 0.00 0.00 0.00 26 1010.2
20260505214130 27 282 12.9 20.9 0.00 0.00 0.00 26 1010.2
20260505213628 27 274 6.4 14.5 0.00 0.00 0.00 27 1010.4
20260505213124 26 329 6.4 14.5 0.00 0.00 0.00 25 1010.6
20260505212620 26 355 6.4 16.1 0.00 0.00 0.00 26 1010.4
20260505212118 26 293 9.7 17.7 0.00 0.00 0.00 26 1010.5
20260505211615 26 246 6.4 16.1 0.00 0.00 0.00 25 1010.5
20260505211112 26 301 9.7 14.5 0.00 0.00 0.00 26 1010.4
20260505210609 26 339 8.0 11.3 0.00 0.00 0.00 27 1010.5
20260505210106 26 321 6.4 14.5 0.00 0.00 0.00 25 1010.6
20260505205603 26 300 9.7 22.5 0.00 0.00 0.00 26 1010.6
20260505205101 26 323 8.0 12.9 0.00 0.00 0.00 26 1010.7
20260505204558 25 290 4.8 14.5 0.00 0.00 0.00 28 1010.7
20260505204055 26 311 12.9 17.7 0.00 0.00 0.00 28 1010.7
20260505203551 26 297 3.2 11.3 0.00 0.00 0.00 27 1010.8
20260505203049 26 336 4.8 6.4 0.00 0.00 0.00 28 1010.6
20260505202545 26 325 1.6 4.8 0.00 0.00 0.00 27 1010.8
20260505202041 27 20 1.6 6.4 0.00 0.00 0.00 28 1010.9
20260505201538 25 279 1.6 1.6 0.00 0.00 0.00 27 1011.2
20260505201036 25 218 0.0 4.8 0.00 0.00 0.00 30 1011.1
20260505200533 24 80 4.8 14.5 0.00 0.00 0.00 28 1011.4
20260505200030 25 27 4.8 6.4 0.00 0.00 0.00 30 1011.2
20260505195526 25 294 6.4 9.7 0.00 0.00 0.00 28 1011.3
20260505195024 24 356 6.4 22.5 0.00 0.00 0.00 30 1011.5
20260505194515 24 49 8.0 9.7 0.00 0.00 0.00 30 1011.5
20260505194010 24 45 3.2 16.1 0.00 0.00 0.00 30 1011.3
20260505193508 24 53 3.2 9.7 0.00 0.00 0.00 32 1011.5
20260505193005 24 93 8.0 11.3 0.00 0.00 0.00 29 1011.3
20260505192504 23 145 1.6 6.4 0.00 0.00 0.00 31 1011.3
20260505192001 25 5 1.6 3.2 0.00 0.00 0.00 31 1011.3
20260505191459 23 302 3.2 3.2 0.00 0.00 0.00 32 1011.4
20260505190956 22 31 6.4 17.7 0.00 0.00 0.00 34 1011.5
20260505190451 23 12 9.7 14.5 0.00 0.00 0.00 33 1011.4
20260505185947 23 15 12.9 20.9 0.00 0.00 0.00 33 1011.7
20260505185444 24 153 1.6 12.9 0.00 0.00 0.00 34 1011.6
20260505184940 24 27 0.0 3.2 0.00 0.00 0.00 33 1011.5
20260505184437 23 185 3.2 3.2 0.00 0.00 0.00 33 1011.6
20260505183934 24 20 0.0 4.8 0.00 0.00 0.00 34 1011.5
20260505183431 22 195 1.6 3.2 0.00 0.00 0.00 39 1011.6
20260505182927 23 27 3.2 16.1 0.00 0.00 0.00 33 1011.7
20260505182425 23 53 4.8 12.9 0.00 0.00 0.00 34 1011.5
20260505181920 22 190 6.4 20.9 0.00 0.00 0.00 38 1011.7
20260505181418 23 129 14.5 16.1 0.00 0.00 0.00 37 1011.8
20260505180915 22 102 9.7 12.9 0.00 0.00 0.00 39 1011.6
20260505180411 22 130 6.4 9.7 0.00 0.00 0.00 40 1011.7
20260505175908 21 136 6.4 12.9 0.00 0.00 0.00 40 1011.8
20260505175404 21 205 3.2 4.8 0.00 0.00 0.00 45 1011.6
20260505174900 21 152 12.9 14.5 0.00 0.00 0.00 43 1011.8
20260505174358 21 90 9.7 12.9 0.00 0.00 0.00 42 1011.7
20260505173854 21 119 4.8 6.4 0.00 0.00 0.00 40 1011.6
20260505173351 22 227 1.6 3.2 0.00 0.00 0.00 40 1011.7
20260505172848 21 91 6.4 9.7 0.00 0.00 0.00 41 1011.9
20260505172345 21 104 4.8 9.7 0.00 0.00 0.00 40 1011.9
20260505171845 21 129 6.4 9.7 0.00 0.00 0.00 41 1011.8
20260505171342 20 114 6.4 14.5 0.00 0.00 0.00 43 1011.7
20260505170838 20 143 6.4 14.5 0.00 0.00 0.00 45 1011.6
20260505170335 20 111 9.7 12.9 0.00 0.00 0.00 43 1011.5
20260505165831 21 135 4.8 9.7 0.00 0.00 0.00 43 1011.7
20260505165327 21 132 8.0 12.9 0.00 0.00 0.00 41 1011.7
20260505164822 21 46 9.7 12.9 0.00 0.00 0.00 41 1011.5
20260505164319 21 98 11.3 14.5 0.00 0.00 0.00 42 1011.5
20260505163817 20 45 0.0 6.4 0.00 0.00 0.00 43 1011.5
20260505163316 20 100 6.4 12.9 0.00 0.00 0.00 44 1011.4
20260505162813 19 90 6.4 12.9 0.00 0.00 0.00 47 1011.6
20260505162309 19 91 0.0 9.7 0.00 0.00 0.00 46 1011.5
20260505161807 20 42 6.4 6.4 0.00 0.00 0.00 44 1011.6
20260505161304 19 80 9.7 11.3 0.00 0.00 0.00 45 1011.6
20260505160801 19 23 3.2 9.7 0.00 0.00 0.00 47 1011.6
20260505160259 17 56 4.8 9.7 0.00 0.00 0.00 50 1011.6
20260505153238 19 90 12.9 14.5 0.00 0.00 0.00 43 1011.2
20260505152736 18 90 8.0 12.9 0.00 0.00 0.00 43 1011.2
20260505152232 18 78 4.8 12.9 0.00 0.00 0.00 47 1011.1
20260505151731 19 55 12.9 14.5 0.00 0.00 0.00 47 1011.1
20260505151229 18 45 9.7 14.5 0.00 0.00 0.00 49 1011.1
20260505150726 18 8 6.4 14.5 0.00 0.00 0.00 48 1011.1
20260505150224 18 17 6.4 9.7 0.00 0.00 0.00 49 1011.2
20260505140154 17 79 0.0 1.6 0.00 0.00 0.00 52 1010.6
20260505130117 13 308 0.0 1.6 0.00 0.00 0.00 55 1009.5
20260505124607 13 27 0.0 0.0 0.00 0.00 0.00 56 1009.2
20260505124103 13 271 0.0 1.6 0.00 0.00 0.00 55 1009.1
20260505123559 13 300 1.6 3.2 0.00 0.00 0.00 55 1008.8
20260505123056 13 319 6.4 6.4 0.00 0.00 0.00 55 1009.0
20260505122553 13 301 4.8 6.4 0.00 0.00 0.00 56 1008.8
20260505122050 13 295 4.8 4.8 0.00 0.00 0.00 56 1008.7
20260505121546 13 306 4.8 4.8 0.00 0.00 0.00 55 1008.5
20260505121043 13 323 3.2 3.2 0.00 0.00 0.00 55 1008.6
20260505120540 13 324 0.0 1.6 0.00 0.00 0.00 55 1008.7
20260505120035 14 329 0.0 1.6 0.00 0.00 0.00 54 1008.8
20260505115530 14 353 1.6 1.6 0.00 0.00 0.00 53 1008.7
20260505115028 14 14 1.6 1.6 0.00 0.00 0.00 54 1008.5
20260505114524 14 336 0.0 4.8 0.00 0.00 0.00 53 1008.3
20260505114016 14 285 1.6 4.8 0.00 0.00 0.00 53 1008.4
20260505113512 15 286 3.2 6.4 0.00 0.00 0.00 51 1008.3
20260505113008 14 235 8.0 12.9 0.00 0.00 0.00 54 1008.5
20260505112504 12 204 6.4 9.7 0.00 0.00 0.00 58 1008.3
20260505112001 12 176 3.2 4.8 0.00 0.00 0.00 61 1008.3
20260505111455 14 151 4.8 4.8 0.00 0.00 0.00 53 1008.4
20260505110952 15 261 0.0 1.6 0.00 0.00 0.00 51 1007.9
20260505110449 15 302 1.6 4.8 0.00 0.00 0.00 51 1007.9
20260505101915 15 322 6.4 11.3 0.00 0.00 0.00 50 1007.8
20260505101414 15 334 3.2 11.3 0.00 0.00 0.00 51 1007.7
20260505100910 15 292 3.2 4.8 0.00 0.00 0.00 52 1007.8
20260505100407 15 279 4.8 4.8 0.00 0.00 0.00 51 1007.7
20260505095902 15 276 8.0 9.7 0.00 0.00 0.00 52 1007.7
20260505095400 14 280 6.4 6.4 0.00 0.00 0.00 53 1007.5
20260505094856 13 284 3.2 3.2 0.00 0.00 0.00 54 1007.6
20260505094353 13 15 0.0 1.6 0.00 0.00 0.00 56 1007.9
20260505093849 12 77 3.2 3.2 0.00 0.00 0.00 57 1007.6
20260505093346 13 115 3.2 4.8 0.00 0.00 0.00 58 1007.4
20260505092844 13 128 1.6 1.6 0.00 0.00 0.00 53 1007.6
20260505092342 14 300 0.0 1.6 0.00 0.00 0.00 52 1007.5
20260505091838 15 174 1.6 3.2 0.00 0.00 0.00 52 1007.5
20260505091337 14 213 1.6 3.2 0.00 0.00 0.00 53 1007.5
20260505090834 14 203 3.2 3.2 0.00 0.00 0.00 51 1007.4
20260505090333 14 74 1.6 3.2 0.00 0.00 0.00 51 1007.5
20260505085829 15 191 1.6 3.2 0.00 0.00 0.00 49 1007.2
20260505085327 16 263 0.0 1.6 0.00 0.00 0.00 45 1007.3
20260505084825 16 8 0.0 1.6 0.00 0.00 0.00 44 1007.3
20260505084323 16 332 3.2 4.8 0.00 0.00 0.00 44 1007.2
20260505083820 16 342 1.6 6.4 0.00 0.00 0.00 45 1007.2
20260505083317 15 330 4.8 6.4 0.00 0.00 0.00 47 1007.4
20260505082814 15 316 4.8 4.8 0.00 0.00 0.00 47 1007.2
20260505082310 16 332 4.8 6.4 0.00 0.00 0.00 46 1007.3
20260505081807 15 303 3.2 4.8 0.00 0.00 0.00 47 1007.1
20260505081304 15 40 3.2 3.2 0.00 0.00 0.00 48 1007.3
20260505080800 14 61 0.0 1.6 0.00 0.00 0.00 50 1007.4
20260505080256 15 354 0.0 0.0 0.00 0.00 0.00 48 1007.2
20260505075752 15 281 0.0 0.0 0.00 0.00 0.00 46 1007.5
20260505075249 15 272 1.6 3.2 0.00 0.00 0.00 45 1007.4
20260505074746 15 280 1.6 3.2 0.00 0.00 0.00 47 1007.5
20260505074243 15 278 3.2 4.8 0.00 0.00 0.00 47 1007.5
20260505073741 15 284 3.2 4.8 0.00 0.00 0.00 47 1007.6
20260505073238 15 276 3.2 3.2 0.00 0.00 0.00 47 1007.3
20260505072735 15 277 3.2 3.2 0.00 0.00 0.00 47 1007.4
20260505072231 15 285 3.2 4.8 0.00 0.00 0.00 47 1007.5
20260505071727 15 309 3.2 4.8 0.00 0.00 0.00 47 1007.3
20260505071224 16 290 8.0 9.7 0.00 0.00 0.00 46 1007.3
20260505070722 16 292 4.8 4.8 0.00 0.00 0.00 44 1007.2
20260505070218 16 304 4.8 6.4 0.00 0.00 0.00 46 1007.3
20260505065714 16 285 4.8 6.4 0.00 0.00 0.00 46 1007.2
20260505065211 16 291 4.8 4.8 0.00 0.00 0.00 45 1007.0
20260505064708 16 322 1.6 3.2 0.00 0.00 0.00 45 1007.3
20260505064206 16 319 3.2 4.8 0.00 0.00 0.00 46 1007.1
20260505063703 16 338 3.2 4.8 0.00 0.00 0.00 45 1007.1
20260505063159 16 281 8.0 12.9 0.00 0.00 0.00 46 1007.1
20260505062655 15 280 9.7 11.3 0.00 0.00 0.00 47 1007.2
20260505062153 15 296 6.4 9.7 0.00 0.00 0.00 48 1007.1
20260505061650 15 290 6.4 6.4 0.00 0.00 0.00 48 1007.2
20260505061148 15 263 4.8 4.8 0.00 0.00 0.00 47 1007.1
20260505060645 15 255 3.2 3.2 0.00 0.00 0.00 47 1007.1
20260505060142 15 254 0.0 0.0 0.00 0.00 0.00 47 1007.1
20260505055637 16 256 1.6 1.6 0.00 0.00 0.00 47 1007.0
20260505055134 16 276 0.0 1.6 0.00 0.00 0.00 45 1006.9
20260505054631 16 303 0.0 0.0 0.00 0.00 0.00 45 1007.0
20260505054129 17 319 0.0 0.0 0.00 0.00 0.00 44 1007.1
20260505053626 17 285 0.0 1.6 0.00 0.00 0.00 43 1007.0
20260505053122 17 304 0.0 1.6 0.00 0.00 0.00 43 1006.5
20260505052620 17 302 3.2 4.8 0.00 0.00 0.00 42 1006.8
20260505052117 17 296 1.6 4.8 0.00 0.00 0.00 42 1006.8
20260505051614 17 277 0.0 1.6 0.00 0.00 0.00 42 1006.9
20260505051112 18 315 0.0 0.0 0.00 0.00 0.00 41 1006.9
20260505050610 18 300 0.0 0.0 0.00 0.00 0.00 40 1006.8
20260505050108 19 279 3.2 3.2 0.00 0.00 0.00 39 1006.6
20260505041537 20 314 6.4 6.4 0.00 0.00 0.00 39 1006.0
20260505041035 20 284 6.4 6.4 0.00 0.00 0.00 39 1006.2
20260505040532 20 304 4.8 6.4 0.00 0.00 0.00 38 1006.0
20260505040029 20 320 4.8 6.4 0.00 0.00 0.00 38 1006.0
20260505035525 20 323 3.2 4.8 0.00 0.00 0.00 38 1006.0
20260505035022 21 325 4.8 6.4 0.00 0.00 0.00 37 1005.9
20260505034518 21 302 6.4 9.7 0.00 0.00 0.00 37 1005.9
20260505034015 21 347 4.8 6.4 0.00 0.00 0.00 37 1005.8
20260505033512 21 319 4.8 9.7 0.00 0.00 0.00 35 1005.7
20260505033011 21 305 6.4 9.7 0.00 0.00 0.00 35 1005.4
20260505032508 21 298 8.0 11.3 0.00 0.00 0.00 34 1005.6
20260505032004 22 283 8.0 14.5 0.00 0.00 0.00 34 1005.3
20260505031501 22 307 9.7 12.9 0.00 0.00 0.00 34 1005.4
20260505030958 22 320 6.4 16.1 0.00 0.00 0.00 34 1005.3
20260505030454 22 307 8.0 12.9 0.00 0.00 0.00 33 1005.1
20260505025949 22 292 6.4 14.5 0.00 0.00 0.00 33 1005.0
20260505025447 22 317 8.0 9.7 0.00 0.00 0.00 32 1004.9
20260505024945 23 308 8.0 11.3 0.00 0.00 0.00 32 1005.1
20260505024442 23 299 8.0 12.9 0.00 0.00 0.00 32 1005.0
20260505023940 23 302 12.9 16.1 0.00 0.00 0.00 32 1005.1
20260505023436 23 282 9.7 14.5 0.00 0.00 0.00 31 1004.8
20260505022934 23 322 9.7 17.7 0.00 0.00 0.00 31 1005.0
20260505022432 23 268 11.3 20.9 0.00 0.00 0.00 31 1004.9
20260505021928 24 313 9.7 14.5 0.00 0.00 0.00 31 1005.0
20260505021425 24 329 12.9 16.1 0.00 0.00 0.00 31 1005.0
20260505020920 24 322 6.4 12.9 0.00 0.00 0.00 31 1004.8
20260505020416 25 290 9.7 12.9 0.00 0.00 0.00 30 1004.9
20260505015913 25 293 9.7 12.9 0.00 0.00 0.00 29 1004.8
20260505015410 26 303 6.4 9.7 0.00 0.00 0.00 29 1004.7
20260505014908 26 318 6.4 11.3 0.00 0.00 0.00 27 1004.8
20260505014404 26 311 9.7 11.3 0.00 0.00 0.00 28 1004.7
20260505013901 27 329 8.0 9.7 0.00 0.00 0.00 26 1005.0
20260505013358 27 333 6.4 11.3 0.00 0.00 0.00 26 1004.9
20260505012856 27 287 9.7 14.5 0.00 0.00 0.00 25 1005.0
20260505012354 27 320 8.0 14.5 0.00 0.00 0.00 25 1004.9
20260505011850 26 324 8.0 17.7 0.00 0.00 0.00 25 1004.9
20260505011347 27 318 6.4 20.9 0.00 0.00 0.00 25 1004.9
20260505010843 27 283 14.5 17.7 0.00 0.00 0.00 23 1005.0
20260505010338 27 314 16.1 22.5 0.00 0.00 0.00 23 1004.9
20260505005835 27 279 9.7 14.5 0.00 0.00 0.00 25 1005.3
20260505005332 27 329 9.7 16.1 0.00 0.00 0.00 24 1005.3